EW1620 Weather Reports


Display with metric or nautical units.
time (UTC)temp
F
wind
direction
speed
MPH
gust
MPH
rain 1hr
in
rain 24hr
in
rain mn
in
humidity
%
barometer
mb
20260902073554 62 355 1.0 10.0 0.00 0.00 0.00 55 1010.5
20260902073058 62 321 3.0 10.0 0.00 0.00 0.00 55 1010.5
20260902072559 62 277 2.0 8.0 0.00 0.00 0.00 54 1010.6
20260902072100 62 310 2.0 8.0 0.00 0.00 0.00 54 1010.6
20260902071558 63 331 3.0 6.0 0.00 0.00 0.00 53 1010.5
20260902071057 63 331 1.0 6.0 0.00 0.00 0.00 53 1010.5
20260902070556 63 344 2.0 6.0 0.00 0.00 0.00 52 1010.6
20260902070056 64 340 3.0 9.0 0.00 0.00 0.00 52 1010.6
20260902065555 64 336 5.0 10.0 0.00 0.00 0.00 51 1010.5
20260902065056 64 320 5.0 10.0 0.00 0.00 0.00 51 1010.6
20260902064556 64 302 4.0 9.0 0.00 0.00 0.00 51 1010.7
20260902064055 64 270 4.0 12.0 0.00 0.00 0.00 51 1010.7
20260902063554 64 5 3.0 9.0 0.00 0.00 0.00 54 1010.7
20260902063112 64 355 4.0 9.0 0.00 0.00 0.00 54 1010.7
20260902062552 63 69 1.0 3.0 0.00 0.00 0.00 58 1010.6
20260902062051 63 73 1.0 4.0 0.00 0.00 0.00 58 1010.7
20260902061554 63 42 2.0 4.0 0.00 0.00 0.00 57 1010.8
20260902061053 63 69 1.0 6.0 0.00 0.00 0.00 57 1010.9
20260902060551 63 67 2.0 6.0 0.00 0.00 0.00 56 1011.0
20260902060106 63 355 0.0 12.0 0.00 0.00 0.00 55 1011.1
20260902055550 63 18 5.0 12.0 0.00 0.00 0.00 54 1011.1
20260902055050 64 265 5.0 9.0 0.00 0.00 0.00 53 1011.1
20260902054604 64 315 2.0 7.0 0.00 0.00 0.00 55 1011.1
20260902054048 64 348 2.0 6.0 0.00 0.00 0.00 56 1011.1
20260902053547 64 74 3.0 7.0 0.00 0.00 0.00 55 1011.2
20260902053048 64 29 3.0 7.0 0.00 0.00 0.00 55 1011.2
20260902052551 64 333 2.0 7.0 0.00 0.00 0.00 55 1011.3
20260902052048 64 13 2.0 5.0 0.00 0.00 0.00 55 1011.4
20260902051556 64 300 1.0 3.0 0.00 0.00 0.00 55 1011.4
20260902051048 64 28 0.0 4.0 0.00 0.00 0.00 56 1011.5
20260902050547 64 49 2.0 9.0 0.00 0.00 0.00 55 1011.4
20260902050048 64 324 4.0 10.0 0.00 0.00 0.00 54 1011.4
20260902045548 64 259 6.0 10.0 0.00 0.00 0.00 53 1011.3
20260902045047 65 305 4.0 9.0 0.00 0.00 0.00 53 1011.4
20260902044546 65 294 2.0 8.0 0.00 0.00 0.00 52 1011.4
20260902044045 65 277 2.0 7.0 0.00 0.00 0.00 53 1011.6
20260902043544 65 151 2.0 5.0 0.00 0.00 0.00 53 1011.5
20260902043105 65 254 2.0 5.0 0.00 0.00 0.00 53 1011.5
20260902042547 65 245 2.0 9.0 0.00 0.00 0.00 53 1011.7
20260902042044 65 360 4.0 9.0 0.00 0.00 0.00 53 1011.7
20260902041600 65 176 1.0 7.0 0.00 0.00 0.00 52 1011.7
20260902041043 66 252 2.0 7.0 0.00 0.00 0.00 53 1011.7
20260902040543 66 279 1.0 4.0 0.00 0.00 0.00 52 1011.8
20260902040043 66 257 2.0 8.0 0.00 0.00 0.00 52 1011.7
20260902035541 65 243 3.0 9.0 0.00 0.00 0.00 53 1011.8
20260902035042 65 190 2.0 8.0 0.00 0.00 0.00 53 1011.9
20260902034549 65 235 2.0 8.0 0.00 0.00 0.00 53 1011.8
20260902034039 65 217 1.0 9.0 0.00 0.00 0.00 54 1011.9
20260902033539 65 285 4.0 9.0 0.00 0.00 0.00 54 1012.1
20260902033041 65 247 3.0 9.0 0.00 0.00 0.00 54 1012.1
20260902032540 65 214 3.0 8.0 0.00 0.00 0.00 53 1012.2
20260902032038 65 208 3.0 9.0 0.00 0.00 0.00 54 1012.2
20260902031541 64 256 4.0 9.0 0.00 0.00 0.00 53 1012.3
20260902031039 64 144 2.0 9.0 0.00 0.00 0.00 55 1012.3
20260902030537 64 207 2.0 9.0 0.00 0.00 0.00 55 1012.2
20260902030036 64 194 4.0 8.0 0.00 0.00 0.00 55 1012.3
20260902025535 63 236 4.0 11.0 0.00 0.00 0.00 55 1012.5
20260902025035 63 247 4.0 11.0 0.00 0.00 0.00 55 1012.7
20260902024534 63 252 3.0 12.0 0.00 0.00 0.00 56 1012.8
20260902024034 63 275 3.0 12.0 0.00 0.00 0.00 56 1012.9
20260902023533 63 206 4.0 10.0 0.00 0.00 0.00 56 1013.1
20260902023036 63 240 5.0 10.0 0.00 0.00 0.00 56 1013.1
20260902022534 62 240 3.0 11.0 0.00 0.00 0.00 57 1013.2
20260902022037 62 209 3.0 11.0 0.00 0.00 0.00 57 1013.3
20260902021537 62 196 5.0 11.0 0.00 0.00 0.00 56 1013.3
20260902021034 63 256 4.0 12.0 0.00 0.00 0.00 56 1013.5
20260902020534 62 271 4.0 12.0 0.00 0.00 0.00 58 1013.5
20260902020034 62 288 3.0 11.0 0.00 0.01 0.00 58 1013.6
20260902015530 62 250 3.0 11.0 0.00 0.01 0.00 58 1013.6
20260902015029 61 257 4.0 11.0 0.00 0.01 0.00 57 1013.7
20260902014533 61 298 3.0 11.0 0.00 0.01 0.00 59 1013.9
20260902014028 61 261 5.0 12.0 0.00 0.01 0.00 60 1014.0
20260902013527 60 298 4.0 10.0 0.00 0.01 0.00 60 1014.2
20260902013026 60 303 4.0 10.0 0.00 0.01 0.00 61 1014.2
20260902012528 59 259 3.0 8.0 0.00 0.01 0.00 61 1014.2
20260902012024 59 259 2.0 10.0 0.00 0.01 0.00 62 1014.2
20260902011523 59 306 4.0 10.0 0.00 0.01 0.00 62 1014.4
20260902011026 59 256 3.0 10.0 0.00 0.01 0.00 61 1014.4
20260902010523 59 277 3.0 9.0 0.00 0.01 0.00 61 1014.4
20260902010025 59 267 2.0 9.0 0.00 0.01 0.00 61 1014.5
20260902005525 59 272 4.0 9.0 0.00 0.01 0.00 61 1014.6
20260902005025 59 282 2.0 8.0 0.00 0.01 0.00 60 1014.7
20260902004529 59 209 4.0 10.0 0.00 0.01 0.00 59 1014.7
20260902004022 60 240 5.0 11.0 0.00 0.01 0.00 58 1014.6
20260902003524 60 215 4.0 11.0 0.00 0.01 0.00 60 1014.6
20260902003057 60 276 5.0 11.0 0.00 0.01 0.00 60 1014.6
20260902002519 60 252 3.0 10.0 0.00 0.01 0.00 61 1014.6
20260902002019 59 279 5.0 14.0 0.00 0.01 0.00 61 1014.7
20260902001521 59 237 2.0 14.0 0.00 0.01 0.00 62 1014.8
20260902001019 59 267 4.0 10.0 0.00 0.01 0.00 63 1014.9
20260902000518 59 238 3.0 10.0 0.00 0.01 0.00 64 1015.0
20260902000030 59 238 4.0 10.0 0.00 0.01 0.00 66 1014.9
20260901235517 58 272 4.0 10.0 0.00 0.01 0.00 67 1015.1
20260901235016 58 298 4.0 9.0 0.00 0.01 0.00 67 1015.1
20260901234515 58 252 5.0 9.0 0.00 0.01 0.00 68 1015.1
20260901234015 57 304 2.0 7.0 0.00 0.01 0.00 69 1015.2
20260901233515 57 223 1.0 8.0 0.00 0.01 0.00 70 1015.4
20260901233016 57 278 2.0 8.0 0.00 0.01 0.00 70 1015.4
20260901232518 57 244 3.0 8.0 0.00 0.01 0.00 70 1015.4
20260901232015 56 276 2.0 9.0 0.00 0.01 0.00 71 1015.3
20260901231513 56 220 3.0 10.0 0.00 0.01 0.00 72 1015.3
20260901231013 56 279 3.0 10.0 0.00 0.01 0.00 72 1015.3
20260901230513 55 240 4.0 10.0 0.00 0.01 0.00 73 1015.2
20260901230016 55 269 3.0 9.0 0.00 0.01 0.00 73 1015.3
20260901225513 55 257 3.0 10.0 0.00 0.01 0.00 75 1015.4
20260901225012 54 225 6.0 10.0 0.00 0.01 0.00 77 1015.4
20260901224512 54 243 3.0 9.0 0.00 0.01 0.00 78 1015.5
20260901224010 54 234 1.0 9.0 0.00 0.01 0.00 79 1015.4
20260901223509 53 260 1.0 8.0 0.00 0.01 0.00 80 1015.4
20260901223009 53 232 2.0 8.0 0.00 0.01 0.00 80 1015.4
20260901222511 53 279 3.0 8.0 0.00 0.01 0.00 81 1015.4
20260901222008 53 189 1.0 5.0 0.00 0.01 0.00 81 1015.4
20260901221509 53 221 1.0 4.0 0.00 0.01 0.00 81 1015.3
20260901221005 53 229 1.0 4.0 0.00 0.01 0.00 82 1015.3
20260901220504 53 267 2.0 4.0 0.00 0.01 0.00 82 1015.3
20260901220008 53 219 0.0 4.0 0.00 0.01 0.00 82 1015.2
20260901215502 53 247 0.0 5.0 0.00 0.01 0.00 83 1015.1
20260901215001 53 212 1.0 5.0 0.00 0.01 0.00 83 1015.1
20260901214559 53 239 1.0 4.0 0.00 0.01 0.00 84 1015.0
20260901214059 52 256 2.0 4.0 0.00 0.01 0.00 84 1014.9
20260901213602 53 227 0.0 6.0 0.00 0.01 0.00 84 1014.8
20260901213001 53 227 0.0 6.0 0.00 0.01 0.00 84 1014.7
20260901212603 53 266 1.0 6.0 0.00 0.01 0.00 85 1014.7
20260901212100 53 242 1.0 4.0 0.00 0.01 0.00 85 1014.6
20260901211559 53 226 0.0 3.0 0.00 0.01 0.00 86 1014.6
20260901211101 53 216 0.0 4.0 0.00 0.01 0.00 86 1014.5
20260901210602 53 198 1.0 4.0 0.00 0.01 0.00 86 1014.4
20260901210125 53 201 0.0 3.0 0.00 0.01 0.00 86 1014.3
20260901205554 53 201 1.0 3.0 0.00 0.01 0.00 87 1014.3
20260901205054 53 227 0.0 2.0 0.00 0.01 0.00 87 1014.3
20260901204553 53 227 0.0 3.0 0.00 0.01 0.00 87 1014.2
20260901204052 53 227 0.0 3.0 0.00 0.01 0.00 87 1014.1
20260901203552 53 242 0.0 2.0 0.00 0.01 0.00 87 1014.1
20260901202550 53 242 0.0 2.0 0.00 0.01 0.00 87 1014.0
20260901202055 53 252 0.0 2.0 0.00 0.01 0.00 87 1014.0
20260901201549 53 252 0.0 2.0 0.00 0.01 0.00 87 1014.0
20260901201049 53 252 0.0 2.0 0.00 0.01 0.00 87 1013.9
20260901200549 53 252 0.0 4.0 0.00 0.01 0.00 87 1013.9
20260901200049 53 252 0.0 4.0 0.00 0.01 0.00 87 1013.9
20260901195548 53 196 0.0 3.0 0.00 0.01 0.00 87 1013.9
20260901195048 53 189 1.0 3.0 0.00 0.01 0.00 87 1013.8
20260901194547 53 207 0.0 2.0 0.00 0.01 0.00 87 1013.9
20260901194046 53 207 0.0 2.0 0.00 0.01 0.00 87 1013.8
20260901193548 53 202 1.0 3.0 0.00 0.01 0.00 87 1013.7
20260901192548 54 205 0.0 2.0 0.00 0.01 0.00 87 1013.7
20260901192049 54 228 0.0 1.0 0.00 0.01 0.00 87 1013.7
20260901191555 54 229 0.0 1.0 0.00 0.01 0.00 87 1013.7
20260901191046 54 229 0.0 0.0 0.00 0.01 0.00 87 1013.6
20260901190546 54 229 0.0 2.0 0.00 0.01 0.00 86 1013.5
20260901190111 54 229 0.0 2.0 0.00 0.01 0.00 86 1013.5
20260901185545 54 229 0.0 2.0 0.00 0.01 0.00 86 1013.5
20260901185044 54 229 0.0 3.0 0.00 0.01 0.00 86 1013.3
20260901184543 54 243 0.0 3.0 0.00 0.01 0.00 86 1013.1
20260901184041 54 243 1.0 5.0 0.00 0.01 0.00 85 1013.0
20260901183540 54 167 1.0 7.0 0.00 0.01 0.00 85 1013.0
20260901182536 55 201 2.0 8.0 0.00 0.01 0.00 84 1012.9
20260901182036 55 202 1.0 8.0 0.00 0.01 0.00 83 1012.8
20260901181538 55 202 2.0 8.0 0.00 0.01 0.00 83 1012.8
20260901181033 55 224 1.0 6.0 0.00 0.01 0.00 83 1012.8
20260901180536 56 177 3.0 6.0 0.00 0.01 0.00 82 1012.7
20260901180032 56 223 2.0 5.0 0.00 0.01 0.00 82 1012.6
20260901175531 56 238 1.0 5.0 0.00 0.01 0.00 82 1012.7
20260901175029 57 207 1.0 7.0 0.00 0.01 0.00 81 1012.7
20260901174534 57 198 3.0 7.0 0.00 0.01 0.00 81 1012.6
20260901174030 57 206 2.0 7.0 0.00 0.01 0.00 80 1012.6
20260901173526 58 195 3.0 9.0 0.00 0.01 0.00 79 1012.6
20260901172529 58 170 3.0 10.0 0.00 0.01 0.00 79 1012.5
20260901172028 59 191 4.0 10.0 0.00 0.01 0.00 79 1012.4
20260901171527 59 188 0.0 3.0 0.00 0.01 0.00 79 1012.3
20260901171027 59 294 0.0 2.0 0.00 0.01 0.00 79 1012.3
20260901170527 59 294 0.0 2.0 0.00 0.01 0.00 79 1012.2
20260901170027 59 294 0.0 3.0 0.00 0.01 0.00 79 1012.2
20260901165531 59 285 0.0 3.0 0.00 0.01 0.00 79 1012.2
20260901165025 59 284 0.0 4.0 0.00 0.01 0.00 79 1012.3
20260901164526 59 284 1.0 4.0 0.00 0.01 0.00 79 1012.3
20260901164024 59 290 1.0 5.0 0.00 0.01 0.00 78 1012.3
20260901163525 59 289 2.0 6.0 0.00 0.01 0.00 78 1012.3
20260901162524 59 326 1.0 5.0 0.00 0.01 0.00 78 1012.2
20260901162023 59 317 0.0 5.0 0.00 0.01 0.00 78 1012.3
20260901161523 59 285 1.0 5.0 0.00 0.01 0.00 78 1012.4
20260901161023 59 302 2.0 7.0 0.00 0.01 0.00 78 1012.4
20260901160522 59 294 2.0 6.0 0.00 0.01 0.00 78 1012.4
20260901160022 59 311 1.0 6.0 0.00 0.01 0.00 78 1012.4
20260901155522 59 338 2.0 5.0 0.00 0.01 0.00 77 1012.5
20260901155022 59 341 1.0 3.0 0.00 0.01 0.00 77 1012.5
20260901154533 59 304 0.0 4.0 0.00 0.01 0.00 76 1012.4
20260901154021 59 337 0.0 4.0 0.00 0.01 0.00 76 1012.4
20260901153523 59 306 0.0 6.0 0.00 0.01 0.00 75 1012.4
20260901152518 59 288 0.0 3.0 0.00 0.01 0.00 75 1012.4
20260901152017 59 270 1.0 3.0 0.00 0.01 0.00 75 1012.5
20260901151517 59 274 1.0 3.0 0.00 0.01 0.00 75 1012.5
20260901151016 59 285 1.0 8.0 0.00 0.01 0.00 75 1012.4
20260901150515 59 339 2.0 8.0 0.00 0.01 0.00 75 1012.3
20260901150015 59 300 2.0 8.0 0.00 0.01 0.00 75 1012.3
20260901145515 59 339 3.0 9.0 0.00 0.01 0.00 75 1012.4
20260901145013 59 294 2.0 9.0 0.00 0.01 0.00 74 1012.3
20260901144519 59 289 4.0 10.0 0.00 0.01 0.00 75 1012.4
20260901144016 60 297 3.0 11.0 0.00 0.01 0.00 74 1012.3
20260901143512 60 332 1.0 10.0 0.00 0.01 0.00 74 1012.3
20260901142515 60 294 4.0 10.0 0.00 0.01 0.00 74 1012.4
20260901142011 60 315 2.0 8.0 0.00 0.01 0.00 73 1012.3
20260901141515 60 304 3.0 10.0 0.00 0.01 0.00 73 1012.3
20260901141009 60 290 2.0 10.0 0.00 0.01 0.00 73 1012.3
20260901140508 60 315 3.0 8.0 0.00 0.01 0.00 72 1012.4
20260901140008 60 307 2.0 5.0 0.00 0.01 0.01 72 1012.4
20260901135512 60 268 3.0 8.0 0.00 0.01 0.01 72 1012.5
20260901135008 60 284 3.0 9.0 0.00 0.01 0.01 72 1012.5
20260901134508 60 296 2.0 10.0 0.00 0.01 0.01 72 1012.4
20260901134007 61 314 2.0 9.0 0.00 0.01 0.01 72 1012.5
20260901133507 61 316 2.0 8.0 0.00 0.01 0.01 72 1012.5
20260901132511 61 328 2.0 9.0 0.00 0.01 0.01 71 1012.5
20260901132014 61 307 2.0 9.0 0.00 0.01 0.01 71 1012.6
20260901131511 61 5 2.0 12.0 0.00 0.01 0.01 71 1012.6
20260901131011 61 273 3.0 12.0 0.00 0.01 0.01 71 1012.6
20260901130511 61 308 4.0 14.0 0.00 0.01 0.01 71 1012.8
20260901130015 61 311 5.0 14.0 0.00 0.01 0.01 70 1012.7
20260901125513 61 295 4.0 11.0 0.00 0.01 0.01 70 1012.7
20260901125012 61 293 5.0 10.0 0.00 0.01 0.01 70 1012.7
20260901124511 61 302 2.0 11.0 0.00 0.01 0.01 70 1012.6
20260901124011 61 292 3.0 14.0 0.00 0.01 0.01 70 1012.5
20260901123510 62 325 3.0 12.0 0.00 0.01 0.01 70 1012.3
20260901122506 62 335 5.0 12.0 0.00 0.01 0.01 69 1012.6
20260901122003 62 339 4.0 20.0 0.00 0.01 0.01 69 1012.7
20260901121506 62 335 10.0 20.0 0.00 0.01 0.01 69 1012.7
20260901121005 62 331 7.0 19.0 0.00 0.01 0.01 68 1012.6
20260901120504 62 274 7.0 19.0 0.00 0.01 0.01 68 1012.6
20260901120004 62 296 3.0 13.0 0.00 0.01 0.01 67 1012.6
20260901115505 62 327 5.0 13.0 0.00 0.01 0.01 67 1012.5
20260901115003 62 281 4.0 22.0 0.00 0.01 0.01 67 1012.5
20260901114503 63 282 8.0 22.0 0.00 0.01 0.01 66 1012.6
20260901114002 63 304 7.0 16.0 0.00 0.01 0.01 66 1012.4
20260901113504 63 306 8.0 15.0 0.00 0.01 0.01 66 1012.4
20260901112504 63 287 6.0 18.0 0.00 0.01 0.01 65 1012.4
20260901112003 63 321 7.0 18.0 0.00 0.01 0.01 65 1012.4
20260901111503 62 22 6.0 17.0 0.00 0.01 0.01 65 1012.4
20260901111003 62 351 9.0 17.0 0.00 0.01 0.01 65 1012.2
20260901110502 62 292 6.0 14.0 0.00 0.01 0.01 66 1012.3
20260901110006 62 323 6.0 22.0 0.00 0.01 0.01 66 1012.3
20260901105503 62 321 9.0 23.0 0.00 0.01 0.01 66 1012.3
20260901105004 62 298 7.0 16.0 0.00 0.01 0.01 66 1012.3
20260901104505 62 330 7.0 16.0 0.00 0.01 0.01 67 1012.2
20260901104004 62 323 6.0 16.0 0.00 0.01 0.01 67 1012.2
20260901103503 62 308 9.0 14.0 0.00 0.01 0.01 68 1012.1
20260901102503 62 346 5.0 12.0 0.00 0.01 0.01 69 1012.2
20260901102003 62 317 4.0 12.0 0.00 0.01 0.01 69 1012.3
20260901101504 62 318 5.0 12.0 0.00 0.01 0.01 70 1012.3
20260901101002 62 360 5.0 12.0 0.00 0.01 0.01 70 1012.1
20260901100502 62 330 4.0 10.0 0.00 0.01 0.01 70 1012.2
20260901100001 62 314 5.0 11.0 0.00 0.01 0.01 69 1012.0
20260901095501 63 313 5.0 15.0 0.00 0.01 0.01 69 1012.4
20260901095001 63 340 5.0 15.0 0.00 0.01 0.01 68 1012.5
20260901094503 63 13 6.0 14.0 0.00 0.01 0.01 67 1012.4
20260901094100 63 340 5.0 12.0 0.00 0.01 0.01 66 1012.3
20260901093600 63 338 5.0 12.0 0.00 0.01 0.01 64 1012.2
20260901092504 64 16 2.0 11.0 0.00 0.01 0.01 64 1012.2
20260901092001 64 333 5.0 11.0 0.00 0.01 0.01 64 1012.4
20260901091500 64 322 5.0 10.0 0.00 0.01 0.01 64 1012.7
20260901091101 65 291 2.0 6.0 0.00 0.01 0.01 64 1012.7
20260901090605 65 292 3.0 9.0 0.00 0.01 0.01 63 1012.8
20260901090500 65 321 2.0 9.0 0.00 0.01 0.01 63 1012.8
20260901090106 65 292 3.0 9.0 0.00 0.01 0.01 62 1012.9
20260901085600 65 291 4.0 11.0 0.00 0.01 0.01 61 1013.1
20260901085103 66 319 5.0 11.0 0.00 0.01 0.01 59 1013.0
20260901084605 66 282 2.0 11.0 0.00 0.01 0.01 59 1012.8
20260901084100 66 324 4.0 12.0 0.00 0.01 0.01 56 1012.7
20260901083559 66 331 4.0 10.0 0.00 0.01 0.01 54 1012.7
20260901082559 66 15 3.0 6.0 0.00 0.01 0.01 54 1012.5
20260901082058 66 5 1.0 8.0 0.00 0.01 0.01 54 1012.5
20260901081558 67 15 1.0 8.0 0.00 0.01 0.01 54 1012.6
20260901081058 67 346 2.0 9.0 0.00 0.01 0.01 54 1012.6
20260901080603 67 360 4.0 10.0 0.00 0.01 0.01 54 1012.6
20260901080112 67 9 3.0 8.0 0.00 0.01 0.01 53 1012.9
20260901075559 67 320 3.0 9.0 0.00 0.01 0.01 53 1012.9
20260901075059 67 338 2.0 9.0 0.00 0.01 0.01 53 1013.0
20260901074558 67 355 4.0 12.0 0.00 0.01 0.01 52 1013.0
20260901074101 67 329 6.0 12.0 0.00 0.01 0.01 52 1013.1